Location: Briis
(48.6240°N, 2.1211°E)
Time: 05:41:46
(UTC+00:00)

COSMO-SKYMED 1 - Pass Details

Date: 25 September 2020
Orbit: 621 x 623 km, 97.9° (Epoch: 19 October)

Event Time Altitude Azimuth Distance (km) Brightness Sun altitude
Rises 04:41:41 0° 157° (SSE) 2,893 6.2 -10.9°
Reaches altitude 10° 04:43:52 10° 155° (SSE) 1,991 5.4 -10.5°
Maximum altitude 04:48:10 68° 73° (ENE) 678 3.0 -9.8°
Drops below altitude 10° 04:52:30 10° 351° (N) 2,006 5.2 -9.1°
Sets 04:54:42 0° 349° (N) 2,917 6.0 -8.8°
